GFSSGP_con_sbcape_000.txt.gz
CAPE
0 0 0 0 0 0 0 0 0 0 0 0 0 0 0 0 0 0 0 1 0 0 333 1235 1629 1505 1331 1191 1025 974 947 489 220 106 36 6 0 0 0 0 0 0 0 0 0 0 0 4 11
0 0 0 0 0 2 5 0 0 0 0 0 0 0 0 0 0 0 0 19 0 2 266 959 1895 1715 1592 1530 1517 1483 1260 808 445 404 245 400 200 46 2 25 19 8 5 3 0 0 0 0 1
0 0 0 0 0 4 12 0 0 0 0 0 0 0 0 0 0 0 0 49 0 7 261 669 2078 1894 1872 1737 1747 1720 1650 1253 836 827 589 478 238 214 187 146 125 81 78 51 10 3 3 1 13
0 0 0 0 0 0 0 0 0 0 0 0 0 0 0 0 0 0 103 224 7 78 240 895 2204 2097 2104 1789 1592 1695 1580 1472 959 846 605 380 183 470 553 114 96 76 70 70 82 25 3 23 22
0 0 0 0 0 2 0 0 0 0 0 0 0 0 0 0 0 0 17 298 136 241 472 1651 2456 2400 2424 1938 1497 1814 1974 1567 1097 813 644 271 484 442 173 85 56 38 22 91 132 114 142 235 101
0 0 0 0 0 0 0 0 0 0 0 0 0 0 0 0 0 0 0 0 111 734 1339 1847 2430 2478 2446 2456 1949 1598 1120 744 418 176 136 141 122 103 102 90 78 55 40 110 193 220 366 374 284
0 0 0 0 0 0 0 0 0 0 0 0 0 0 0 0 0 0 0 0 209 630 1037 1437 1904 2188 2148 1625 1577 1287 856 367 15 0 0 0 0 1 4 5 7 34 59 122 360 488 525 566 384
0 0 0 0 0 0 0 0 0 0 0 0 0 0 0 0 0 0 0 0 0 71 280 558 546 524 582 1004 1137 807 300 0 0 0 0 0 0 0 1 6 12 21 18 22 383 490 552 595 578
0 0 0 0 0 0 0 0 0 0 0 0 0 0 0 0 0 0 0 0 0 0 36 114 56 96 175 253 331 353 36 0 2 0 0 5 0 0 0 0 30 94 156 146 201 387 574 363 431
0 0 0 0 0 0 0 0 0 0 0 0 0 0 0 0 0 0 0 0 0 0 0 0 0 0 0 54 45 2 0 0 0 0 0 0 0 0 0 6 22 23 265 279 387 410 471 444 5
0 0 0 0 0 0 0 0 0 0 0 0 0 0 0 0 0 0 0 0 0 0 0 0 0 0 0 0 0 0 0 0 0 0 0 0 0 0 0 0 0 0 68 66 211 258 299 154 19
0 0 0 0 0 0 0 0 0 0 0 0 0 0 0 0 0 0 0 0 0 0 0 0 0 0 0 0 0 0 0 0 0 0 0 0 0 0 0 0 0 1 13 19 33 15 23 133 98
0 0 0 0 0 0 0 0 0 0 0 0 0 0 0 0 0 0 0 0 0 0 0 0 0 0 0 0 0 0 0 0 0 0 0 0 0 0 5 48 28 3 0 0 0 0 38 81 131
0 0 0 0 0 0 0 0 0 0 0 0 0 0 0 0 0 0 0 0 0 0 0 0 0 0 0 0 0 0 0 0 0 0 0 0 0 0 14 0 0 0 0 0 0 2 1 70 60
0 0 0 0 0 0 0 0 0 0 0 0 0 0 0 0 0 0 0 0 0 0 0 0 0 0 0 0 0 0 0 0 0 0 0 0 0 0 2 0 0 0 0 0 0 0 4 10 6
0 0 0 0 0 0 0 0 0 0 0 0 0 0 0 0 0 0 0 0 0 0 0 0 0 0 0 0 0 0 0 0 0 0 0 0 0 0 0 0 0 0 0 0 0 0 28 38 24
0 0 0 0 0 0 0 0 0 0 0 0 0 0 0 0 0 0 0 0 0 0 0 0 0 0 0 0 0 0 0 0 0 0 0 0 0 0 0 0 0 0 0 0 0 4 50 43 23
0 0 0 0 0 0 0 0 0 0 0 0 0 0 0 0 0 0 0 0 0 0 0 0 0 0 4 0 0 0 0 0 0 0 0 0 0 0 0 0 0 0 0 0 0 3 9 20 8
0 0 0 0 0 0 0 0 0 0 0 0 0 0 0 0 0 0 0 0 0 0 0 0 0 3 0 0 0 0 0 0 2 9 10 1 0 0 0 0 0 0 0 0 0 0 0 7 3
0 0 0 0 0 0 0 0 0 0 0 0 0 0 0 0 0 0 0 0 0 0 0 0 0 0 0 0 0 0 0 0 0 6 6 4 0 3 0 0 0 0 0 0 0 0 0 1 0
0 0 0 0 0 0 0 0 0 0 0 0 0 0 0 0 0 0 0 0 0 0 0 1 1 0 0 0 0 0 0 0 0 2 4 0 0 4 27 3 0 0 0 0 0 0 7 66 34
0 0 0 0 0 0 0 0 0 0 0 0 0 0 0 0 0 0 0 0 0 0 0 0 0 0 0 0 0 0 0 0 0 0 0 0 2 8 22 0 0 0 0 0 0 0 6 25 96
0 0 0 0 0 0 0 0 0 0 0 0 0 0 0 0 0 0 0 0 0 0 0 0 0 0 0 0 0 0 0 0 0 0 0 0 15 39 29 0 0 0 0 0 25 1 20 8 10
0 0 0 0 0 0 0 0 0 0 0 0 0 0 0 0 0 0 0 0 0 0 0 0 0 0 0 0 0 0 0 0 0 0 0 0 0 13 0 10 0 0 0 0 0 0 0 0 84
0 0 0 0 0 0 0 0 0 0 0 0 0 0 0 0 0 0 0 0 0 0 0 0 0 0 0 0 0 0 0 0 0 0 0 0 0 0 0 0 26 0 15 20 0 0 12 0 51
0 0 0 0 0 0 0 0 0 0 0 0 0 0 0 0 0 0 0 0 0 0 0 0 0 0 0 0 0 0 0 0 0 0 0 0 0 0 0 0 10 71 63 81 15 70 67 17 0
0 0 0 0 0 0 0 0 0 0 0 0 0 0 0 0 0 0 0 0 0 0 0 0 0 0 0 0 0 0 0 0 0 0 0 0 0 0 0 0 6 110 98 24 99 132 110 49 15
0 0 0 0 0 0 0 0 0 0 0 0 0 0 0 0 0 0 0 0 0 0 0 0 0 0 0 0 0 0 5 0 0 0 0 0 0 0 0 0 23 70 49 41 86 21 17 53 36
0 0 0 0 0 0 0 0 0 0 0 0 0 0 0 0 0 0 0 0 0 0 0 0 0 0 0 0 0 8 20 8 1 0 0 0 0 0 0 0 26 40 30 3 8 0 18 38 35
0 0 0 0 0 0 0 0 0 0 0 0 0 0 0 0 0 0 0 0 0 0 0 0 0 0 0 0 0 2 4 0 0 0 0 0 0 0 0 0 35 29 9 0 54 63 1 1 5

GFSSGP_con_sbcape_003.txt.gz
CAPE
0 0 0 0 0 0 0 0 0 0 0 0 0 0 0 0 0 0 0 0 0 0 6 1253 1623 1437 1048 943 792 660 470 267 75 37 1 0 0 0 0 0 4 1 0 0 0 0 0 0 3
0 0 0 0 0 0 0 0 0 0 0 0 0 0 0 0 0 0 5 0 0 0 179 878 1775 1662 1389 1261 1176 983 734 412 236 54 0 1 14 32 0 2 6 13 11 5 2 0 0 1 1
0 0 0 0 0 0 0 0 0 0 0 0 0 0 0 0 0 0 0 0 0 14 293 689 1939 1788 1691 1582 1493 1392 1374 947 564 192 226 185 384 258 152 25 21 95 119 71 39 5 0 2 3
0 0 0 0 0 0 0 22 0 0 0 0 0 0 0 0 0 0 21 0 0 9 163 706 2084 2008 1968 1916 1830 1735 1406 1132 838 545 776 652 444 255 208 252 166 95 58 32 70 134 49 1 13
0 0 0 0 0 0 0 0 0 0 0 0 0 0 0 0 0 7 109 4 0 3 172 706 2265 2230 2210 2214 1773 1593 1479 1477 1477 946 893 717 497 440 207 160 101 93 63 19 36 124 246 118 81
0 0 0 0 0 0 0 0 0 0 0 0 0 0 0 0 0 106 170 41 24 79 271 981 2309 2346 2295 2255 2055 1910 1898 1922 1467 918 686 539 412 306 216 171 103 72 46 63 99 336 372 315 380
0 0 0 0 0 0 0 0 0 0 0 0 0 0 0 0 0 0 15 13 148 282 633 1431 1886 2071 2438 2269 2214 2206 1793 1125 795 443 60 0 0 0 0 1 6 9 21 59 123 331 464 363 374
0 0 0 0 0 0 0 0 0 0 0 0 0 0 0 0 0 0 0 43 235 598 864 1171 1241 1438 1551 1925 2067 1821 1182 722 272 0 0 0 0 0 0 4 10 14 17 20 63 86 443 452 287
0 0 0 0 0 0 0 0 0 0 0 0 0 0 0 0 0 0 0 0 0 175 334 529 598 509 495 675 982 1213 745 149 3 2 5 19 0 0 0 0 1 16 42 76 16 80 407 322 191
0 0 0 0 0 0 0 0 0 0 0 0 0 0 0 0 0 0 0 0 0 12 13 147 133 195 188 352 321 189 4 0 0 0 0 0 0 0 0 0 19 37 66 65 172 168 222 187 17
0 0 0 0 0 0 0 0 0 0 0 0 0 0 0 0 0 0 0 0 0 0 0 0 0 10 30 72 38 4 0 0 0 0 0 0 0 0 0 0 0 0 9 7 14 66 72 78 0
0 0 0 0 0 0 0 0 0 0 0 0 0 0 0 0 0 0 0 0 0 0 0 0 0 0 0 0 0 0 0 0 0 0 0 0 0 0 0 0 0 0 1 1 0 0 12 0 0
0 0 0 0 0 0 0 0 0 0 0 0 0 0 0 0 0 0 0 0 0 0 0 0 0 0 0 0 0 0 0 0 0 0 0 0 0 0 0 0 7 12 9 7 0 0 0 0 0
0 0 0 0 0 0 0 0 0 0 0 0 0 0 0 0 0 0 0 0 0 0 0 0 0 0 0 0 0 0 0 0 0 0 0 0 0 0 0 0 2 1 0 0 0 0 0 0 0
0 0 0 0 0 0 0 0 0 0 0 0 0 0 0 0 0 0 0 0 0 0 0 0 0 0 0 0 0 0 0 0 0 0 0 0 0 0 0 0 0 0 0 0 0 0 0 0 0
0 0 0 0 0 0 0 0 0 0 0 0 0 0 0 0 0 0 0 0 0 0 0 0 0 0 0 0 0 0 0 0 0 0 0 0 0 0 0 0 0 0 0 0 0 0 0 0 0
0 0 0 0 0 0 0 0 0 0 0 0 0 0 0 0 0 0 0 0 0 0 0 0 0 0 0 0 0 0 0 0 0 0 0 0 0 0 0 0 0 0 0 0 0 0 0 0 0
0 0 0 0 0 0 0 0 0 0 0 0 0 0 0 0 0 0 0 0 0 0 0 0 0 0 0 0 0 0 0 0 0 0 0 0 0 0 0 0 0 0 0 0 0 0 0 3 0
0 0 0 0 0 0 0 0 0 0 0 0 0 0 0 0 0 0 0 0 0 0 0 0 0 0 0 0 0 0 0 0 0 0 0 0 0 0 0 0 0 0 0 0 0 0 0 6 0
0 0 0 0 0 0 0 0 0 0 0 0 0 0 0 0 0 0 0 0 0 0 0 0 0 0 0 0 0 0 0 0 0 0 11 14 3 0 0 0 0 0 0 0 0 0 0 0 0
0 0 0 0 0 0 0 0 0 0 0 0 0 0 0 0 0 0 0 0 0 0 0 0 0 0 0 0 0 0 0 0 0 0 0 0 0 0 2 0 0 0 0 0 0 0 2 15 1
0 0 0 0 0 0 0 0 0 0 0 0 0 0 0 0 0 0 0 0 0 0 0 0 0 0 0 0 0 0 0 0 0 0 0 0 0 8 0 0 0 0 0 0 0 0 0 0 23
0 0 0 0 0 0 0 0 0 0 0 0 0 0 0 0 0 0 0 0 0 0 0 0 0 0 0 0 0 0 0 0 0 0 0 0 1 10 0 0 0 0 0 0 0 0 0 0 0
0 0 0 0 0 0 0 0 0 0 0 0 0 0 0 0 0 0 0 0 0 0 0 0 0 0 0 0 0 0 0 0 0 0 0 0 0 8 0 0 0 0 0 0 0 0 0 0 2
0 0 0 0 0 0 0 0 0 0 0 0 0 0 0 0 0 0 0 0 0 0 0 0 0 0 0 0 0 0 0 0 0 0 0 0 0 0 0 0 0 0 0 0 0 0 0 0 17
0 0 0 0 0 0 0 0 0 0 0 0 0 0 0 0 0 0 0 0 0 0 0 0 0 0 0 0 0 0 0 0 0 0 0 0 0 0 0 0 0 2 21 10 0 0 0 0 0
0 0 0 0 0 0 0 0 0 0 0 0 0 0 0 0 0 0 0 0 0 0 0 0 0 0 0 0 0 0 0 0 0 0 0 0 0 0 0 0 0 16 4 7 19 32 12 2 1
0 0 0 0 0 0 0 0 0 0 0 0 0 0 0 0 0 0 0 0 0 0 0 0 0 0 0 0 0 0 0 0 0 0 0 0 0 0 0 0 0 1 3 9 4 10 24 62 19
0 0 0 0 0 0 0 0 0 0 0 0 0 0 0 0 0 0 0 0 0 0 0 0 0 0 0 0 0 2 0 0 0 0 0 0 0 0 0 0 0 1 0 1 0 2 26 56 30
0 0 0 0 0 0 0 0 0 0 0 0 0 0 0 0 0 0 0 0 0 0 0 0 0 0 0 0 0 0 0 0 0 0 0 0 0 0 0 0 0 0 0 0 1 1 18 30 30

GFSSGP_con_sbcape_006.txt.gz
CAPE
0 0 0 0 0 0 0 0 0 0 0 0 0 0 0 0 0 0 0 0 0 0 0 1134 1555 1138 783 814 697 585 347 80 0 0 0 0 0 0 0 0 0 0 0 0 0 0 0 0 0
0 0 0 0 0 0 0 0 0 0 0 0 0 0 0 0 0 0 1 0 0 0 13 862 1669 1450 1194 1090 983 877 740 288 123 16 0 0 0 0 0 0 2 11 18 10 1 0 2 1 0
0 0 0 0 0 0 0 0 0 0 0 0 0 0 0 0 0 0 0 0 0 0 140 608 1807 1690 1457 1356 1215 1076 951 641 314 12 0 8 42 232 326 25 18 29 56 160 59 15 2 4 3
0 0 0 0 0 0 0 0 0 0 0 0 0 0 0 0 0 0 0 0 0 1 206 676 1910 1816 1704 1597 1502 1438 1118 975 703 275 203 336 373 339 245 155 179 131 161 56 20 83 170 50 3
0 0 0 0 0 0 0 0 0 0 0 0 0 0 0 0 0 0 0 0 0 55 189 518 1933 1941 1910 1890 1739 1732 1487 1359 1289 803 499 703 574 409 328 276 214 142 132 71 31 34 331 207 99
0 0 0 0 0 0 0 0 0 0 0 0 0 0 0 0 0 20 0 0 1 25 97 421 1758 2049 1965 2006 1964 1879 1759 1602 1535 1412 1198 836 674 572 456 312 215 174 103 25 19 204 322 476 151
0 0 0 0 0 0 0 0 0 0 0 0 0 0 0 0 0 56 8 0 0 13 149 460 1314 1824 2129 2134 2007 1941 1770 1752 1940 1624 1110 699 505 70 8 1 16 53 61 41 36 53 194 341 90
0 0 0 0 0 0 0 0 0 0 0 0 0 0 0 0 0 0 0 0 41 94 202 540 1257 1508 1493 1717 2242 2128 2080 1785 1337 821 598 0 0 0 0 0 1 9 13 16 20 15 26 174 201
0 0 0 0 0 0 0 0 0 0 0 0 0 0 0 0 0 0 0 0 69 246 353 596 938 983 968 1164 1633 2191 1266 951 759 259 10 113 0 0 0 0 0 0 4 14 19 14 86 121 31
0 0 0 0 0 0 0 0 0 0 0 0 0 0 0 0 0 0 0 8 22 169 282 423 511 516 558 656 684 731 413 267 12 2 0 0 0 0 0 0 0 5 25 34 75 142 71 74 1
0 0 0 0 0 0 0 0 0 0 0 0 0 0 0 0 0 0 0 0 0 42 199 155 215 168 240 304 152 85 2 0 0 0 0 0 0 0 0 0 0 0 0 0 3 0 19 48 0
0 0 0 0 0 0 0 0 0 0 0 0 0 0 0 0 0 0 0 0 0 0 1 6 36 32 29 15 5 2 0 0 0 0 0 0 0 0 0 0 0 0 0 0 2 0 0 7 0
0 0 0 0 0 0 0 0 0 0 0 0 0 0 0 0 0 0 0 0 0 0 0 0 0 0 0 0 0 0 0 0 0 0 0 0 0 0 0 0 0 0 0 5 9 13 5 0 1
0 0 0 0 0 0 0 0 0 0 0 0 0 0 0 0 0 0 0 0 0 0 0 0 0 0 0 0 0 0 0 0 0 0 0 0 0 0 0 0 0 0 0 0 0 0 2 0 0
0 0 0 0 0 0 0 0 0 0 0 0 0 0 0 0 0 0 0 0 0 0 0 0 0 0 0 0 0 0 0 0 0 0 0 0 0 0 0 0 0 0 0 0 0 0 0 0 0
0 0 0 0 0 0 0 0 0 0 0 0 0 0 0 0 0 0 0 0 0 0 0 0 0 0 0 0 0 0 0 0 0 0 0 0 0 0 0 0 0 0 0 0 0 0 0 0 0
0 0 0 0 0 0 0 0 0 0 0 0 0 0 0 0 0 0 0 0 0 0 0 0 0 0 0 0 0 0 0 0 0 0 0 0 0 0 0 0 0 0 0 0 0 0 0 0 0
0 0 0 0 0 0 0 0 0 0 0 0 0 0 0 0 0 0 0 0 0 0 0 0 0 0 0 0 0 0 0 0 0 0 0 0 0 0 0 0 0 0 0 0 0 0 0 0 0
0 0 0 0 0 0 0 0 0 0 0 0 0 0 0 0 0 0 0 0 0 0 0 0 0 0 0 0 0 0 0 0 0 0 0 0 0 0 0 0 0 0 0 0 0 0 0 0 0
0 0 0 0 0 0 0 0 0 0 0 0 0 0 0 0 0 0 0 0 0 0 0 0 0 0 0 0 0 0 0 0 0 0 0 0 0 0 0 0 0 0 0 0 0 0 0 0 8
0 0 0 0 0 0 0 0 0 0 0 0 0 0 0 0 0 0 0 0 0 0 0 0 0 0 0 0 0 0 0 0 0 0 0 0 0 0 0 0 0 0 0 0 0 0 0 12 0
0 0 0 0 0 0 0 0 0 0 0 0 0 0 0 0 0 0 0 0 0 0 0 0 0 0 0 0 0 0 0 0 0 0 0 0 0 1 0 0 0 0 0 0 0 0 2 21 89
0 0 0 0 0 0 0 0 0 0 0 0 0 0 0 0 0 0 0 0 0 0 0 0 0 0 0 0 0 0 0 0 0 0 0 0 0 6 0 0 0 0 0 0 0 0 0 0 17
0 0 0 0 0 0 0 0 0 0 0 0 0 0 0 0 0 0 0 0 0 0 0 0 0 0 0 0 0 0 0 0 0 0 0 0 0 2 0 0 0 0 0 0 0 0 0 0 0
0 0 0 0 0 0 0 0 0 0 0 0 0 0 0 0 0 0 0 0 0 0 0 0 0 0 0 0 0 0 0 0 0 0 0 0 0 0 0 0 0 0 0 0 0 0 0 0 0
0 0 0 0 0 0 0 0 0 0 0 0 0 0 0 0 0 0 0 0 0 0 0 0 0 0 0 0 0 0 0 0 0 0 0 0 0 0 0 0 0 0 0 0 0 0 0 0 0
0 0 0 0 0 0 0 0 0 0 0 0 0 0 0 0 0 0 0 0 0 0 0 0 0 0 0 0 0 0 0 0 0 0 0 0 0 0 0 0 0 1 1 3 2 20 14 0 0
0 0 0 0 0 0 0 0 0 0 0 0 0 0 0 0 0 0 0 0 0 0 0 0 0 0 0 0 0 0 0 0 0 0 0 0 0 0 0 0 0 4 0 0 2 17 44 88 5
0 0 0 0 0 0 0 0 0 0 0 0 0 0 0 0 0 0 0 0 0 0 0 0 0 0 0 0 0 0 0 0 0 0 0 0 0 0 0 0 0 0 0 0 16 18 27 63 33
0 0 0 0 0 0 0 0 0 0 0 0 0 0 0 0 0 0 0 0 0 0 0 0 0 0 0 0 0 0 0 0 0 0 0 0 0 0 0 0 0 0 0 1 8 16 53 51 43

GFSSGP_con_sbcape_009.txt.gz
CAPE
0 0 0 0 0 0 0 0 0 0 0 0 0 0 0 0 0 0 0 13 13 0 0 861 1475 1138 822 672 489 376 245 107 12 0 0 0 0 0 0 0 0 0 0 0 0 0 0 0 0
0 0 0 0 0 0 0 0 4 0 0 0 0 0 0 0 0 0 42 57 9 0 155 268 1616 1320 1125 955 869 740 544 288 149 32 0 0 0 0 0 0 0 0 0 0 5 12 9 2 1
0 0 0 0 0 8 9 0 0 0 0 0 0 0 0 0 0 0 33 46 0 0 221 596 1738 1524 1373 1236 1146 1080 910 665 404 136 53 37 58 86 117 17 15 1 1 2 53 53 31 21 1
0 0 0 0 0 0 0 0 0 0 0 0 0 0 0 0 0 0 53 17 0 0 278 557 1774 1691 1565 1449 1396 1307 1192 969 737 387 338 290 384 476 542 293 286 164 95 65 113 8 83 202 108
0 0 0 0 0 0 0 2 0 0 0 0 0 0 0 0 0 1 112 65 14 9 277 483 1839 1870 1787 1743 1640 1473 1366 1187 1070 888 551 624 825 605 515 531 307 295 213 181 110 109 287 469 222
0 0 0 0 0 0 0 0 0 0 0 0 0 0 0 0 0 19 126 206 79 110 175 602 1631 2014 1881 1819 1743 1662 1629 1516 1479 1384 1206 1097 1120 757 633 528 465 398 332 255 176 243 318 345 418
0 0 0 0 0 0 0 0 0 0 0 0 0 0 0 0 0 12 97 220 190 222 291 635 1022 1727 1950 1924 1825 1830 1839 1763 1762 1677 1504 1425 906 696 375 70 23 28 88 165 175 101 291 296 130
0 0 0 0 0 0 0 0 0 0 0 0 0 0 0 1 0 50 100 163 137 265 412 595 983 1206 1209 1213 2127 2109 2068 1936 1836 1900 1500 923 449 0 0 0 0 0 1 5 6 35 124 177 277
0 0 0 0 0 0 0 0 0 0 0 0 0 0 0 0 0 46 140 176 170 225 435 573 860 1281 1223 1047 1414 2190 1850 1707 1791 1154 784 370 10 12 0 0 0 0 0 8 11 10 19 32 53
0 0 0 0 0 0 0 0 0 0 0 0 0 0 0 0 0 2 123 159 196 313 369 507 979 1170 1289 1197 1437 1453 1205 891 786 629 311 270 270 127 12 0 0 0 2 15 40 106 51 169 43
0 0 0 0 0 0 0 0 0 0 0 0 0 0 0 0 0 2 35 97 116 282 395 485 910 1255 1331 1256 1416 1386 1027 863 824 482 371 280 140 48 2 2 2 4 0 3 6 10 3 56 160
0 0 0 0 0 0 0 0 0 0 0 0 0 0 0 0 0 0 4 70 121 213 371 629 862 1129 1394 1157 1116 864 739 630 399 330 401 363 274 95 12 2 2 1 1 9 47 42 51 130 187
0 0 0 0 0 0 0 0 0 0 0 0 0 0 0 0 0 0 0 3 84 146 265 620 868 1019 1122 977 716 639 570 352 290 313 245 241 208 184 46 20 26 22 7 75 116 144 109 137 212
0 0 0 0 0 0 0 0 0 0 0 0 0 0 0 0 0 0 0 0 1 28 54 338 680 979 749 608 551 468 460 343 330 241 212 134 79 68 32 36 61 89 109 110 144 111 127 119 174
0 0 0 0 0 0 0 0 0 0 0 0 0 0 0 0 0 0 0 0 5 0 3 140 612 655 544 481 414 267 236 276 280 278 279 122 102 157 195 182 184 308 245 151 186 154 148 155 159
0 0 0 0 0 0 0 0 0 0 0 0 0 0 0 0 0 0 0 0 0 0 0 11 101 323 423 347 221 183 208 255 252 254 243 184 221 337 406 333 209 230 186 195 146 145 127 139 157
0 0 0 0 0 0 0 0 0 0 0 0 0 0 0 0 0 0 0 0 0 0 0 0 69 196 228 229 151 198 271 231 240 276 286 284 263 274 253 292 224 261 133 112 179 168 140 142 174
0 0 0 0 0 0 0 0 0 0 0 0 0 0 0 0 0 0 0 0 0 0 0 47 84 136 176 125 82 117 173 264 284 344 374 355 376 335 291 241 192 211 151 165 184 215 156 183 288
0 0 0 0 0 0 0 0 0 0 0 0 0 0 0 0 0 0 0 0 0 0 0 54 148 145 96 43 72 192 305 343 356 399 433 486 566 428 422 351 171 58 131 273 257 227 182 233 348
0 0 0 0 0 0 0 0 0 0 0 0 0 0 0 0 0 0 0 0 0 0 0 27 106 98 101 112 178 285 411 410 372 411 452 535 536 456 347 131 117 90 241 331 295 272 235 351 494
0 0 0 0 0 0 0 0 0 0 0 0 0 0 0 0 0 0 0 0 0 0 3 14 43 100 120 143 185 263 215 274 371 307 354 302 197 175 296 240 227 372 381 389 337 325 329 530 508
0 0 0 0 0 0 0 0 0 0 0 0 0 0 0 0 0 0 0 0 0 0 0 0 54 116 160 142 267 453 498 529 300 288 212 223 54 173 296 400 336 463 420 409 349 405 472 592 598
0 0 0 0 0 0 0 0 0 0 0 0 0 0 0 0 0 0 0 0 0 0 0 4 84 150 145 186 240 424 677 281 228 169 259 217 247 230 216 385 449 525 433 523 411 400 448 750 645
0 0 0 0 0 0 0 0 0 0 0 0 0 0 0 0 0 0 0 0 0 0 0 2 54 151 139 225 299 649 503 345 171 200 211 171 227 267 388 266 419 519 488 507 360 394 445 575 762
0 0 0 0 0 0 0 0 0 0 0 0 0 0 0 0 0 0 0 0 0 0 0 0 61 62 135 189 290 358 304 178 128 142 146 201 257 222 464 420 424 538 517 450 397 394 417 487 579
0 0 0 0 0 0 0 0 0 0 0 0 0 0 0 0 0 0 0 0 0 0 0 2 66 60 99 209 357 145 190 38 2 34 89 50 210 272 342 316 339 520 464 494 510 486 385 389 644
0 0 0 0 0 0 0 0 0 0 0 0 0 0 0 0 0 0 0 0 0 0 10 33 60 79 168 244 256 160 145 0 49 88 45 15 151 194 227 286 444 546 588 577 641 610 562 412 435
0 0 0 0 0 0 0 0 0 0 0 0 0 0 0 0 0 0 0 0 0 0 7 34 13 58 142 62 232 147 80 2 59 50 36 58 98 133 159 176 307 478 599 632 607 402 407 476 546
0 0 0 0 0 0 0 0 0 0 0 0 0 0 0 0 0 0 0 0 0 0 0 0 0 2 0 8 130 162 82 12 47 31 8 3 37 54 64 100 165 281 559 471 270 190 192 280 431
0 0 0 0 0 0 0 0 0 0 0 0 0 0 0 0 0 0 0 0 0 0 0 0 0 0 0 40 22 150 193 49 49 12 0 1 6 25 47 139 164 213 407 121 58 56 67 147 185

GFSSGP_con_sbcape_015.txt.gz
CAPE
0 0 0 0 0 0 0 0 4 0 2 0 0 0 0 0 0 0 0 47 23 43 271 349 1022 931 837 622 476 324 177 48 0 0 0 0 0 0 0 0 0 0 0 0 0 0 0 0 0
0 0 0 0 0 0 3 1 8 21 9 0 0 0 0 1 0 0 29 86 37 61 426 150 1246 1105 1051 826 712 559 386 151 47 0 0 0 0 0 0 0 0 0 0 0 0 3 24 5 0
0 0 0 0 0 0 88 68 39 8 0 0 0 0 0 0 0 0 85 105 64 36 685 268 1372 1217 1227 1094 897 750 675 487 189 14 5 6 7 7 4 0 0 0 37 8 12 10 134 173 41
0 0 0 0 0 6 33 124 75 18 42 0 0 0 0 0 0 0 16 106 84 50 359 1186 1385 1370 1368 1349 1178 1053 903 800 587 254 131 77 86 226 121 36 44 70 164 186 138 97 115 162 34
0 0 0 0 0 0 32 0 115 118 70 24 3 0 0 5 0 0 27 81 104 68 104 1058 1607 1595 1579 1611 1444 1287 1169 1066 972 614 376 285 504 581 372 194 284 449 522 484 309 357 355 174 83
0 0 0 0 0 0 0 0 0 0 21 23 11 4 0 3 0 0 15 74 86 92 89 285 1853 1774 1688 1674 1588 1476 1421 1376 1282 1174 1001 825 898 991 827 736 768 760 672 552 423 408 423 398 123
0 0 0 1 3 0 1 1 0 0 16 17 9 0 1 58 15 4 19 51 79 98 63 139 1720 1753 1806 1801 1690 1656 1646 1623 1591 1478 1348 1332 1178 1350 1038 989 796 605 326 159 140 214 299 353 239
0 0 0 18 9 0 17 2 0 0 7 22 0 0 9 72 14 2 7 29 51 101 98 149 640 1860 1476 996 1904 1855 1824 1774 1694 1643 1570 1622 1197 1357 1094 686 238 47 12 14 0 31 77 164 243
0 0 0 0 2 0 2 16 10 13 1 0 0 3 0 0 7 25 18 14 42 69 140 172 253 979 1346 649 980 1938 1759 1742 1755 1436 1527 1479 564 418 751 614 86 28 9 0 0 0 2 24 50
0 0 0 0 5 16 15 16 21 23 28 0 0 3 10 27 18 39 5 0 23 85 133 208 1044 685 1177 649 836 1533 963 1012 977 774 616 1168 724 531 477 552 88 41 11 0 0 22 34 128 18
0 0 0 29 44 11 47 29 32 36 54 25 0 0 1 10 35 41 2 0 10 19 135 264 1720 2082 1590 1068 697 1600 1284 1151 1154 1039 1194 1209 605 754 740 704 747 514 289 308 140 147 211 84 140
1 0 0 10 28 16 16 13 34 35 42 21 0 0 0 11 23 27 0 6 13 92 76 294 700 2367 2778 1127 637 912 1359 1224 1008 1118 1398 1051 700 948 1021 674 695 763 339 283 87 39 67 168 102
0 0 0 1 4 12 20 1 4 0 4 0 0 0 2 15 3 2 0 0 1 95 102 150 1240 2612 2892 3172 1037 1433 1421 998 1161 779 818 877 768 1210 821 994 536 779 343 569 612 522 390 199 208
0 0 0 0 0 4 23 0 3 2 4 0 0 1 3 7 0 0 0 0 13 116 134 194 1301 2650 2739 2601 3012 2502 2427 1208 884 635 471 790 1031 1045 797 822 626 740 509 363 419 525 761 451 434
1 7 6 2 1 1 14 0 0 0 0 0 0 0 9 0 0 0 0 0 3 112 252 1443 2153 2737 3254 3312 2884 2157 1388 1011 776 633 681 735 1094 1112 1084 983 947 1340 1209 880 655 605 862 277 231
0 20 4 0 0 4 44 0 0 0 4 5 0 2 1 0 0 0 0 16 292 293 881 1212 874 2491 3474 3301 2719 2007 1163 985 499 408 578 1087 1162 1125 1067 1074 1023 1470 1400 1156 1047 733 700 319 213
0 1 0 0 7 26 67 0 1 0 0 1 16 1 0 0 0 23 0 0 295 691 1565 1047 1965 1558 3187 3254 2406 2101 2216 796 411 453 630 764 1009 1006 1247 1013 1176 1201 1365 1360 910 854 620 368 172
0 0 0 0 0 38 51 32 37 0 0 0 1 10 0 0 0 4 5 25 127 386 884 1448 1794 2617 3263 2592 2438 1298 772 659 442 586 650 779 995 866 1232 1035 1204 1116 1167 873 1004 666 587 375 1066
0 0 0 0 1 22 0 27 60 24 6 3 0 0 0 0 0 12 6 57 160 271 719 1182 1597 2925 2695 2053 1462 954 570 687 528 639 739 931 1012 1322 1044 1097 1098 1129 1023 956 1034 644 530 654 724
0 0 0 0 0 47 24 41 35 17 8 0 0 0 0 0 0 0 0 417 292 548 749 842 1310 2277 2443 1750 1472 824 825 449 597 612 827 990 924 968 803 971 1085 996 1142 877 438 667 602 709 602
0 0 0 0 0 15 17 6 0 0 0 0 0 0 0 0 0 0 0 507 414 575 752 877 1187 1936 2018 1727 1235 778 725 649 681 408 702 1086 822 1052 859 919 906 810 1179 928 849 811 614 578 978
0 0 0 0 1 8 3 0 0 0 0 0 0 0 0 0 0 0 2 559 581 646 779 968 1317 1323 994 1522 1279 1837 817 463 327 642 480 777 579 580 574 610 695 791 1271 808 822 835 581 966 781
0 0 0 0 0 0 0 0 0 0 0 0 0 0 0 0 0 0 163 536 568 656 825 1048 1123 905 972 862 1387 676 669 283 424 258 629 899 756 500 528 611 719 786 842 834 813 758 736 1061 1138
0 0 1 12 0 0 0 0 0 0 0 0 0 0 0 0 1 65 510 552 591 605 789 922 853 807 767 551 644 848 624 411 307 531 867 1004 975 865 753 420 548 644 876 786 774 815 845 1046 1222
0 7 8 1 0 0 0 0 0 0 0 0 0 0 0 82 303 446 490 512 529 620 699 742 686 761 587 530 606 629 723 782 803 668 1029 719 591 911 955 468 619 707 819 854 778 855 764 984 1156
0 0 0 0 0 0 0 0 0 0 0 0 0 0 158 361 420 446 455 503 534 584 579 480 601 549 461 500 508 586 708 621 438 734 587 1131 646 826 532 573 661 807 722 887 853 655 742 648 874
0 1 0 1 7 9 9 1 0 0 0 0 0 0 230 491 548 540 539 524 517 482 467 488 504 434 417 385 553 545 709 419 962 708 425 497 598 551 389 452 626 580 583 739 810 946 891 677 790
1 0 0 0 2 15 13 15 0 1 1 0 14 5 131 538 573 559 531 498 464 420 394 490 453 404 290 375 464 577 576 559 555 520 397 743 533 183 387 463 605 615 611 774 883 1129 883 892 1187
0 7 0 0 0 14 26 10 0 1 24 9 11 77 473 615 522 487 443 441 437 390 458 535 368 233 233 414 343 1017 793 524 378 378 213 683 257 474 134 126 452 536 768 689 857 760 634 684 852
0 3 0 1 0 1 40 25 0 0 11 118 188 403 580 508 443 416 419 422 404 452 478 428 213 138 214 260 377 797 495 554 560 394 136 307 467 191 74 120 82 225 533 694 489 331 354 531 531

GFSSGP_con_sbcape_021.txt.gz
CAPE
0 0 0 0 0 0 0 0 0 0 2 0 0 0 0 0 0 0 6 138 79 222 429 692 822 612 463 311 200 125 65 46 12 0 0 0 0 0 0 0 0 0 0 0 0 0 0 0 0
0 0 0 0 0 0 0 0 0 2 3 0 0 0 0 4 0 0 144 241 178 152 277 286 884 697 566 431 322 182 121 95 79 8 0 0 0 0 0 0 0 0 0 0 0 0 0 0 0
0 0 0 0 0 0 0 0 37 22 0 0 0 0 0 0 3 0 37 300 157 140 113 159 939 788 664 536 380 295 236 227 174 35 1 0 0 0 0 0 0 0 0 0 1 14 1 2 180
0 0 0 0 0 0 0 0 14 13 0 0 0 0 0 0 0 0 489 363 243 173 39 606 1013 946 805 673 578 494 418 381 335 150 85 39 25 30 24 0 0 0 0 28 110 145 153 117 114
0 0 0 0 0 0 0 0 18 2 8 16 11 0 0 0 12 11 161 497 336 157 0 591 1225 1160 1075 994 869 722 583 552 574 479 254 226 361 367 228 96 73 72 127 245 337 407 440 434 352
0 0 0 0 0 0 0 0 0 47 0 0 0 3 0 0 0 0 0 99 269 143 5 436 1301 1336 1214 1194 1089 905 793 798 768 731 656 647 648 615 437 270 242 352 486 573 498 464 480 550 450
0 0 0 0 0 0 0 0 0 0 0 0 0 0 0 0 0 0 0 0 12 224 158 487 548 1111 1529 1316 1198 1053 953 924 873 837 857 914 931 921 871 887 765 789 861 758 521 394 244 288 451
0 0 0 0 0 0 0 0 0 0 0 0 0 0 0 0 0 0 0 0 0 201 616 490 470 486 666 729 1466 1291 1168 1082 1019 1060 1085 1114 1134 1136 1229 1150 1249 934 733 582 347 140 110 109 259
0 0 0 0 0 0 0 0 0 0 0 0 0 1 0 0 0 0 0 0 0 58 750 608 526 462 491 452 1061 1439 1502 1336 1305 1239 1300 1155 686 665 656 896 1145 1060 871 598 369 238 112 42 92
0 0 0 0 0 0 0 0 0 0 0 0 0 0 0 0 0 0 0 0 0 0 686 836 703 591 562 534 687 905 859 878 998 902 919 726 518 190 164 658 1539 1257 1307 923 533 293 74 45 0
1 0 0 0 0 0 0 0 0 0 0 0 0 0 0 0 0 0 0 0 0 0 6 854 821 724 665 578 669 896 799 865 953 697 533 583 388 238 511 180 942 430 759 161 271 100 8 0 0
0 0 0 0 0 0 0 0 0 0 0 0 0 0 0 0 0 0 0 0 0 0 0 709 1065 1046 746 503 532 821 677 699 758 618 366 569 451 520 404 232 269 158 67 46 0 0 1 2 21
0 0 0 0 0 0 0 0 0 0 0 0 0 0 0 0 0 0 0 0 0 0 0 607 1306 1383 981 435 607 772 684 658 617 612 515 531 611 407 236 172 272 216 144 70 47 39 66 110 71
0 0 0 0 0 0 0 0 0 0 0 0 0 0 0 0 0 0 0 0 0 0 0 157 848 1291 1026 670 698 800 800 745 657 717 750 769 567 349 417 541 357 223 117 17 17 16 2 2 3
0 0 0 0 0 0 0 0 0 0 0 0 0 0 0 0 0 0 0 0 1 2 0 350 699 753 970 837 414 817 998 885 793 621 902 892 599 446 626 469 357 302 264 246 168 36 8 2 2
0 0 0 0 0 0 0 0 0 0 0 0 0 0 0 0 0 0 0 0 7 0 0 143 995 968 1076 848 1277 914 1079 800 710 490 833 693 509 597 601 450 372 325 375 190 241 83 0 6 9
0 0 0 0 0 0 0 0 0 0 0 0 0 0 0 0 0 0 1 0 0 4 8 589 1398 1454 1451 1433 1189 1488 1199 617 332 210 215 701 592 713 537 544 372 318 475 380 250 189 67 16 20
0 0 0 0 0 0 0 0 0 0 0 0 0 0 0 0 0 0 0 0 0 0 106 471 991 1691 1839 1843 1469 1597 1181 662 428 251 223 443 606 690 624 523 422 458 463 313 209 166 51 61 43
0 0 0 0 0 0 0 0 0 0 0 0 0 0 0 0 0 0 0 0 1 385 725 1054 1661 1967 2137 1980 1727 1450 992 628 530 234 393 546 627 738 605 363 407 376 329 308 201 136 121 68 29
0 0 0 0 0 0 0 0 0 0 0 0 0 0 0 0 0 0 0 0 43 209 940 1454 2233 2038 2018 1774 1488 1192 636 464 343 327 368 392 368 386 312 294 270 278 269 294 142 32 31 44 2
0 0 0 0 0 0 0 0 0 0 0 0 0 0 0 0 0 0 0 0 354 603 1233 1635 2208 1795 1812 1643 1382 782 308 259 285 275 484 441 386 533 448 266 273 201 186 211 109 173 107 77 10
0 0 0 0 0 0 0 0 0 0 0 0 0 0 0 0 0 0 0 124 537 774 910 1112 2088 1846 1645 1419 1055 628 439 402 314 327 359 595 331 393 364 320 236 149 104 119 148 101 95 11 79
0 0 0 0 0 0 0 0 0 0 0 0 0 0 0 0 0 0 0 435 700 712 912 1582 1697 1542 1256 885 603 258 169 320 240 315 399 402 68 121 179 93 95 115 67 97 83 127 144 89 47
0 0 0 0 0 0 0 0 0 0 0 0 0 0 0 0 0 12 529 630 682 943 1291 1453 1443 1106 929 565 493 423 365 339 181 343 315 208 33 198 188 154 1 1 25 113 133 115 98 91 110
0 0 0 0 0 0 0 0 0 0 0 0 0 0 0 58 344 496 596 662 871 1079 1173 1132 1003 592 768 742 271 580 106 254 227 118 113 126 180 178 173 47 0 1 45 105 95 53 81 121 126
0 0 0 0 0 0 0 0 0 0 0 0 0 0 308 398 387 448 525 671 887 1018 922 840 561 503 646 300 486 352 177 114 200 94 38 67 18 80 3 37 15 164 250 310 217 69 104 137 79
0 0 0 0 0 0 0 0 0 0 0 0 0 1 352 399 464 482 403 646 874 816 559 626 521 453 442 232 406 376 246 262 139 99 8 4 1 0 23 1 135 233 204 333 121 87 61 112 86
0 0 0 0 0 0 0 0 0 0 0 0 0 194 278 340 425 348 419 607 649 592 533 512 417 395 359 458 350 187 321 206 123 16 8 31 0 2 1 8 218 335 98 197 61 62 131 226 224
0 0 0 0 0 0 0 0 0 0 0 0 2 262 263 300 368 342 492 530 488 474 488 405 352 372 284 405 173 174 217 102 1 1 12 0 0 17 11 37 185 122 59 49 36 50 89 140 165
0 0 0 0 0 0 0 0 0 22 0 0 10 373 275 358 328 407 472 422 415 396 441 363 280 279 148 382 254 257 176 33 1 0 9 0 0 0 12 12 299 137 189 82 69 72 98 98 29

GFSSGP_con_sbcape_024.txt.gz
CAPE
0 0 0 0 0 0 0 0 0 0 0 0 0 0 0 0 0 0 0 0 51 152 454 812 933 713 535 389 212 130 62 25 1 0 0 0 0 0 0 0 0 0 0 0 0 0 0 0 0
0 0 0 0 0 0 0 0 0 0 0 0 0 0 0 0 0 64 83 104 42 226 382 443 1001 782 658 467 293 176 115 49 37 2 0 0 0 0 0 0 0 0 0 0 0 0 0 0 0
0 0 0 0 0 0 0 0 0 10 6 0 0 0 0 0 0 7 56 150 92 183 251 335 1059 882 788 607 387 218 156 149 64 12 6 0 0 0 0 0 0 0 0 0 0 0 0 0 24
0 0 0 0 0 0 0 0 4 29 1 0 0 0 0 0 0 34 204 128 83 145 145 692 1043 903 861 735 519 301 273 290 220 79 50 37 25 44 25 0 0 0 0 27 67 82 83 88 59
0 0 0 0 0 0 0 0 0 11 10 1 0 0 0 0 2 339 244 133 58 28 22 621 1212 1033 965 895 660 435 377 387 394 362 202 99 193 151 73 59 34 19 6 81 163 243 419 429 371
0 0 0 0 0 0 0 0 0 6 29 14 0 0 0 0 110 359 257 134 61 0 0 388 1190 1217 1045 1016 768 617 542 522 580 579 518 498 530 459 263 197 126 124 220 335 445 594 474 447 375
0 0 0 0 0 0 0 0 0 8 0 0 0 0 0 0 1 196 231 138 88 1 0 160 387 879 1393 1229 976 801 683 638 660 692 706 747 767 734 705 627 458 362 516 646 789 582 450 392 363
0 0 0 0 0 0 0 0 0 0 0 0 0 0 0 0 0 0 0 17 78 20 15 162 134 358 590 752 1249 967 820 784 728 840 846 913 932 900 915 829 929 695 916 868 829 576 285 173 158
0 0 0 0 0 0 0 0 0 0 0 0 0 0 0 0 0 0 0 0 26 143 185 229 258 130 375 387 789 1091 1090 1047 870 893 948 875 560 624 566 853 903 1086 1176 1091 788 548 345 214 116
0 0 0 0 0 0 0 0 0 0 0 0 0 0 0 0 0 0 0 0 0 107 352 341 348 212 207 245 331 609 492 530 577 477 511 579 416 285 511 565 1191 1330 1545 1178 957 728 466 224 0
0 0 0 0 0 0 0 0 0 0 0 0 0 0 0 0 0 0 0 0 0 0 319 455 403 327 224 79 216 567 440 459 491 455 435 555 384 276 328 160 486 1060 1364 787 798 495 303 0 0
0 0 0 0 0 0 0 0 0 0 0 0 0 0 0 0 0 0 0 0 0 0 141 595 545 422 329 168 171 415 406 443 564 562 403 435 239 148 114 111 134 354 274 184 25 11 0 0 0
0 0 0 0 0 0 0 0 0 0 0 0 0 0 0 0 0 0 0 0 0 0 0 457 606 537 461 292 357 376 396 426 596 541 366 379 259 189 193 124 83 99 35 53 12 0 0 0 0
0 0 0 0 0 0 0 0 0 0 0 0 0 0 0 0 0 0 0 0 0 0 0 141 580 598 588 433 376 506 451 337 451 483 345 387 375 308 235 139 54 118 58 24 14 17 13 1 0
0 0 0 0 0 0 0 0 0 0 0 0 0 0 0 0 0 0 0 0 0 0 0 33 706 736 693 563 330 532 517 452 423 396 410 446 462 312 293 204 284 81 37 22 11 0 0 0 0
0 0 0 0 0 0 0 0 0 0 0 0 0 0 0 0 0 0 0 0 0 0 0 0 473 967 833 697 382 602 604 539 495 501 610 668 583 329 272 267 224 146 101 64 25 0 0 0 0
0 0 0 0 0 0 0 0 0 0 0 0 0 0 0 0 0 0 0 0 0 0 0 0 333 609 767 740 407 639 724 694 544 517 744 749 580 421 409 266 163 90 152 86 58 39 3 4 0
0 0 0 0 0 0 0 0 0 0 0 0 0 0 0 0 0 0 0 0 0 0 0 0 401 524 650 557 682 578 447 374 214 374 559 526 543 517 334 243 202 108 198 169 41 113 0 17 20
0 0 0 0 0 0 0 0 0 0 0 0 0 0 0 0 0 0 0 0 0 0 0 9 790 871 1065 936 1184 900 525 248 94 119 293 388 373 364 240 169 198 148 267 218 2 4 53 6 2
0 0 0 0 0 0 0 0 0 0 0 0 0 0 0 0 0 0 0 0 0 0 69 93 821 1238 1394 1298 1199 756 439 201 155 107 134 228 259 312 243 183 128 101 83 49 0 1 0 0 0
0 0 0 0 0 0 0 0 0 0 0 0 0 0 0 0 0 0 0 0 0 27 436 874 1315 1455 1365 1053 614 257 156 75 104 102 108 146 161 108 110 20 0 4 0 0 0 0 0 0 0
0 0 0 0 0 0 0 0 0 0 0 0 0 0 0 0 0 0 0 0 4 200 847 1486 1287 1362 1222 1107 602 573 252 236 105 118 74 98 192 174 89 57 21 0 0 0 0 0 0 0 0
0 0 0 0 0 0 0 0 0 0 0 0 0 0 0 0 0 0 0 0 90 581 1061 1419 1320 1404 1032 780 461 295 232 69 30 72 138 59 34 88 128 0 0 0 0 0 0 0 0 0 0
0 0 0 0 0 0 0 0 0 0 0 0 0 0 0 0 0 0 14 278 431 716 1318 1318 1262 971 669 435 142 109 194 67 119 75 106 0 0 0 0 0 0 0 0 0 0 0 0 3 6
0 0 0 0 0 0 0 0 0 0 0 0 0 0 0 0 0 211 336 481 735 1156 1224 854 834 622 380 52 9 13 36 8 54 46 14 0 1 2 0 0 0 0 0 0 0 0 0 1 23
0 0 0 0 0 0 0 0 0 0 0 0 0 0 0 91 150 214 388 633 950 1050 890 488 408 377 48 102 0 0 0 0 0 1 0 0 0 0 0 0 0 0 0 9 20 0 0 5 16
0 0 0 0 0 0 0 0 0 0 0 0 0 0 112 125 203 284 507 758 813 581 517 217 222 93 23 38 0 0 0 0 0 0 0 0 0 0 0 0 0 0 21 42 36 21 45 37 0
0 0 0 0 0 0 0 0 0 0 0 0 0 2 140 183 207 324 537 629 438 349 187 63 91 0 84 12 1 1 0 0 0 0 0 0 0 0 0 0 0 2 2 8 12 25 38 43 56
0 0 0 0 0 0 0 0 0 0 0 0 0 50 195 235 185 355 534 401 290 287 129 56 70 33 79 14 7 34 22 0 0 0 0 0 0 0 0 0 3 1 1 0 0 24 64 82 53
0 0 0 0 0 0 0 0 0 0 0 0 10 218 172 132 182 411 412 341 357 261 129 75 54 37 51 4 1 13 1 0 0 0 0 0 0 0 0 0 63 15 4 3 11 41 70 9 29

GFSSGP_con_sbcape_027.txt.gz
CAPE
0 0 0 0 0 0 0 0 0 0 0 0 0 0 0 0 0 0 0 0 11 123 545 994 1297 972 684 494 323 187 83 17 0 0 0 0 0 0 0 0 0 0 0 0 0 0 0 0 0
0 0 0 0 0 0 0 0 0 0 0 0 0 0 0 0 0 3 0 33 35 206 435 489 1211 966 798 594 422 275 148 64 5 0 0 0 0 0 0 0 0 0 0 0 0 0 0 0 0
0 0 0 0 0 0 0 0 0 0 0 0 0 0 0 0 5 8 9 65 158 201 319 274 1180 1031 946 733 457 290 208 173 70 0 0 0 0 0 0 0 0 0 0 0 0 0 0 0 0
0 0 0 0 0 0 0 0 0 0 0 0 0 0 0 0 1 0 114 58 105 130 218 334 1248 1155 1040 878 520 334 279 257 185 90 29 22 9 25 15 0 0 0 0 0 0 33 43 67 67
0 0 0 0 0 0 0 0 0 0 0 0 0 0 0 0 1 132 117 50 11 44 117 252 1392 1270 1176 1027 720 447 359 327 302 262 174 104 121 81 33 23 27 25 29 39 103 167 238 321 353
0 0 0 0 0 0 0 0 0 0 0 0 0 0 0 0 160 125 92 27 0 9 45 163 1285 1323 1190 1077 863 573 453 402 417 406 337 283 273 193 70 71 72 73 76 120 266 390 591 606 548
0 0 0 0 0 0 0 0 0 0 0 0 0 0 0 0 12 150 126 61 16 0 0 121 518 886 1326 1145 916 700 602 512 548 542 514 501 519 517 430 387 234 203 275 439 616 734 767 587 534
0 0 0 0 0 0 0 0 0 0 0 0 0 0 0 0 0 9 98 77 24 0 0 0 236 389 503 672 1261 971 806 718 661 709 692 703 797 803 759 675 691 383 558 765 922 998 815 537 331
0 0 0 0 0 0 0 0 0 0 0 0 0 0 0 0 0 0 0 0 74 10 0 0 91 177 250 313 589 1117 921 905 853 835 848 705 496 538 427 625 605 616 839 1072 1021 1031 931 392 278
0 0 0 0 0 0 0 0 0 0 0 0 0 0 0 0 0 0 0 0 21 103 64 103 100 85 200 185 209 565 450 445 501 465 439 455 296 283 351 526 701 740 1012 1197 1230 1216 735 455 21
0 0 0 0 0 0 0 0 0 0 0 0 0 0 0 0 0 0 0 0 0 4 157 186 172 55 33 82 80 363 370 334 435 321 236 271 256 248 449 270 448 747 1106 1011 1091 888 524 192 0
0 0 0 0 0 0 0 0 0 0 0 0 0 0 0 0 0 0 0 0 0 0 30 191 203 160 7 13 42 92 269 246 354 348 232 290 180 99 142 120 63 306 576 830 436 263 142 17 0
0 0 0 0 0 0 0 0 0 0 0 0 0 0 0 0 0 0 0 0 0 0 0 51 240 224 130 11 13 81 263 185 219 320 302 292 177 107 39 45 60 101 130 238 125 32 12 2 0
0 0 0 0 0 0 0 0 0 0 0 0 0 0 0 0 0 0 0 0 0 0 0 0 251 270 247 162 75 102 195 199 212 345 349 249 112 62 37 50 57 69 44 50 54 28 15 4 0
0 0 0 0 0 0 0 0 0 0 0 0 0 0 0 0 0 0 0 0 0 0 0 0 153 296 293 324 235 248 223 226 284 362 302 263 119 45 61 67 35 38 44 33 6 11 0 0 0
0 0 0 0 0 0 0 0 0 0 0 0 0 0 0 0 0 0 0 0 0 0 0 0 11 333 352 382 341 358 421 322 291 340 272 267 192 126 113 112 129 69 18 8 2 3 0 6 0
0 0 0 0 0 0 0 0 0 0 0 0 0 0 0 0 0 0 0 0 0 0 0 0 35 404 455 477 392 357 468 414 361 295 312 320 256 208 153 89 107 48 24 6 1 0 0 0 0
0 0 0 0 0 0 0 0 0 0 0 0 0 0 0 0 0 0 0 0 0 0 0 0 6 440 533 408 176 274 416 400 340 401 490 510 359 289 132 102 81 20 45 14 0 0 0 0 0
0 0 0 0 0 0 0 0 0 0 0 0 0 0 0 0 0 0 0 0 0 0 0 0 0 59 333 382 385 424 584 337 314 470 587 497 424 206 166 129 57 0 35 30 0 0 1 1 0
0 0 0 0 0 0 0 0 0 0 0 0 0 0 0 0 0 0 0 0 0 0 0 0 0 144 364 580 670 502 421 137 190 307 435 424 423 214 97 100 22 6 18 0 0 1 0 0 1
0 0 0 0 0 0 0 0 0 0 0 0 0 0 0 0 0 0 0 0 0 0 0 0 18 436 578 401 69 4 13 27 86 151 267 349 263 180 160 44 10 0 0 0 0 0 0 0 0
0 0 0 0 0 0 0 0 0 0 0 0 0 0 0 0 0 0 0 0 0 0 0 163 556 705 582 471 239 270 328 285 30 153 63 19 129 109 38 0 0 0 0 0 0 0 0 0 0
0 0 0 0 0 0 0 0 0 0 0 0 0 0 0 0 0 0 0 0 0 0 292 707 816 842 563 363 325 112 59 0 11 6 8 16 19 17 0 0 0 0 0 0 0 0 0 0 0
0 0 0 0 0 0 0 0 0 0 0 0 0 0 0 0 0 0 0 0 9 617 888 945 863 617 385 237 95 106 13 1 0 0 0 0 0 0 0 0 0 0 0 0 0 0 0 0 0
0 0 0 0 0 0 0 0 0 0 0 0 0 0 0 0 0 0 45 127 641 894 802 812 667 342 172 49 51 48 4 0 0 0 0 0 0 0 0 0 0 0 0 0 0 0 0 0 0
0 0 0 0 0 0 0 0 0 0 0 0 0 0 0 0 0 35 153 456 758 682 573 642 374 17 8 4 0 0 0 0 0 0 0 0 0 0 0 0 0 0 0 0 0 0 0 0 0
0 0 0 0 0 0 0 0 0 0 0 0 0 0 0 0 28 150 388 547 505 280 218 302 32 0 0 0 0 0 0 0 0 0 0 0 0 0 0 0 0 0 0 0 0 0 0 11 3
0 0 0 0 0 0 0 0 0 0 0 0 0 0 0 5 167 314 438 320 240 48 5 2 0 0 0 0 0 0 0 0 0 0 0 0 0 0 0 0 0 0 0 0 0 0 0 5 12
0 0 0 0 0 0 0 0 0 0 0 0 0 0 0 93 201 408 290 167 98 0 1 0 0 0 0 0 0 0 0 0 0 0 0 0 0 0 0 0 0 0 0 0 0 0 16 51 45
0 0 0 0 0 0 0 0 0 0 0 0 0 0 66 65 244 255 198 178 86 7 0 0 0 0 0 0 0 0 0 0 0 0 0 0 0 0 0 0 0 12 0 0 0 0 20 3 15

GFSSGP_con_sbcape_030.txt.gz
CAPE
0 0 0 0 0 0 0 0 0 0 0 0 0 0 0 0 0 0 0 0 0 11 648 1198 1475 1285 912 721 527 374 200 67 0 0 0 0 0 0 0 0 0 0 0 0 0 0 0 0 0
0 0 0 0 0 0 0 0 0 0 0 0 0 0 0 0 0 0 0 0 0 44 418 721 1521 1299 997 788 565 422 271 122 35 0 0 0 0 0 0 0 0 0 0 0 0 0 0 0 0
0 0 0 0 0 0 0 0 0 0 0 0 0 0 0 0 0 0 0 19 53 148 288 362 1565 1321 1174 912 637 473 303 181 115 40 9 8 11 13 4 0 0 0 0 0 0 0 0 0 0
0 0 0 0 0 0 0 0 0 0 0 0 0 0 0 0 0 0 6 24 43 84 217 344 1557 1338 1240 1094 845 555 426 311 228 150 118 62 32 35 19 0 0 0 0 0 4 0 8 0 0
0 0 0 0 0 0 0 0 0 0 0 0 0 0 0 0 6 35 17 60 35 63 149 282 1579 1356 1346 1290 1017 719 552 422 349 276 146 100 123 87 37 21 23 35 46 54 86 155 179 186 259
0 0 0 0 0 0 0 0 0 0 0 0 0 0 0 0 43 46 34 5 3 53 93 131 1335 1353 1375 1369 1145 794 593 511 446 370 281 214 219 152 98 58 49 61 79 108 172 231 325 682 567
0 0 0 0 0 0 0 0 0 0 0 0 0 0 0 0 0 53 13 0 0 7 33 12 692 1016 1488 1351 1122 842 653 590 500 400 377 341 348 285 222 237 179 137 239 280 364 535 717 748 561
0 0 0 0 0 0 0 0 0 0 0 0 0 0 0 0 0 84 35 17 2 0 0 0 286 616 580 808 1375 1148 854 761 630 586 598 537 508 474 453 420 473 306 416 506 671 786 884 795 524
0 0 0 0 0 0 0 0 0 0 0 0 0 0 0 0 0 0 2 2 36 10 0 0 67 198 320 416 598 1202 914 973 874 797 810 527 304 368 320 471 477 566 665 835 982 1042 1147 712 400
0 0 0 0 0 0 0 0 0 0 0 0 0 0 0 0 0 0 0 0 12 71 41 0 7 82 148 207 231 485 356 362 428 403 406 336 238 258 352 436 538 677 837 1034 1321 1238 1004 676 149
0 0 0 0 0 0 0 0 0 0 0 0 0 0 0 0 0 0 0 0 0 4 51 8 1 41 96 130 80 229 311 272 333 300 273 305 243 323 477 228 423 431 830 746 1228 1214 875 263 63
0 0 0 0 0 0 0 0 0 0 0 0 0 0 0 0 0 0 0 0 0 0 0 68 35 27 23 66 32 63 245 215 259 287 219 207 189 85 263 110 85 228 361 706 642 528 385 158 50
0 0 0 0 0 0 0 0 0 0 0 0 0 0 0 0 0 0 0 0 0 0 0 0 62 55 23 18 18 15 115 153 156 252 191 182 142 52 42 82 21 17 69 308 351 192 78 32 6
0 0 0 0 0 0 0 0 0 0 0 0 0 0 0 0 0 0 0 0 0 0 0 0 21 68 72 12 28 17 8 99 88 185 213 179 105 15 18 12 4 1 9 41 104 42 9 8 2
0 0 0 0 0 0 0 0 0 0 0 0 0 0 0 0 0 0 0 0 0 0 0 0 0 26 77 37 18 0 7 72 74 145 203 208 72 0 14 6 0 8 0 1 0 0 0 3 0
0 0 0 0 0 0 0 0 0 0 0 0 0 0 0 0 0 0 0 0 0 0 0 0 0 20 77 125 112 25 17 74 116 162 239 234 74 15 15 4 5 7 0 0 0 0 3 0 0
0 0 0 0 0 0 0 0 0 0 0 0 0 0 0 0 0 0 0 0 0 0 0 0 0 0 66 148 188 145 143 126 145 189 239 218 154 105 52 21 15 7 0 0 0 0 0 0 0
0 0 0 0 0 0 0 0 0 0 0 0 0 0 0 0 0 0 0 0 0 0 0 0 0 0 30 133 85 28 124 169 145 166 195 204 224 182 84 76 50 9 1 0 0 0 0 0 0
0 0 0 0 0 0 0 0 0 0 0 0 0 0 0 0 0 0 0 0 0 0 0 0 0 0 97 109 59 77 296 205 170 239 242 241 250 188 167 128 32 0 8 0 0 0 0 1 4
0 0 0 0 0 0 0 0 0 0 0 0 0 0 0 0 0 0 0 0 0 0 0 0 0 0 141 262 137 211 230 108 156 282 365 356 293 237 201 99 10 0 0 0 0 1 1 1 1
0 0 0 0 0 0 0 0 0 0 0 0 0 0 0 0 0 0 0 0 0 0 0 0 0 0 46 98 1 0 0 0 31 169 261 264 334 285 152 31 0 0 0 0 0 1 0 0 2
0 0 0 0 0 0 0 0 0 0 0 0 0 0 0 0 0 0 0 0 0 0 0 0 0 0 38 71 31 121 105 163 88 206 161 141 149 90 7 5 0 0 0 0 0 0 0 0 0
0 0 0 0 0 0 0 0 0 0 0 0 0 0 0 0 0 0 0 0 0 0 0 0 21 150 77 65 95 112 76 0 11 34 76 16 13 16 3 0 0 0 0 0 0 0 0 0 0
0 0 0 0 0 0 0 0 0 0 0 0 0 0 0 0 0 0 0 0 0 1 48 163 237 137 62 48 0 0 0 8 16 4 12 0 0 0 0 0 0 0 0 0 0 0 0 0 0
0 0 0 0 0 0 0 0 0 0 0 0 0 0 0 0 0 0 0 0 11 236 241 271 227 59 0 0 0 0 0 3 6 1 0 0 0 0 0 0 0 0 0 0 0 0 0 0 0
0 0 0 0 0 0 0 0 0 0 0 0 0 0 0 0 0 0 0 58 344 307 394 188 42 0 0 0 0 0 0 0 0 0 0 0 0 0 0 0 0 0 0 0 0 0 0 0 0
0 0 0 0 0 0 0 0 0 0 0 0 0 0 0 0 0 0 37 298 379 353 204 31 0 0 0 0 0 0 0 0 0 0 0 0 0 0 0 0 0 0 0 0 0 0 0 2 1
0 0 0 0 0 0 0 0 0 0 0 0 0 0 0 0 0 36 124 221 54 13 0 0 0 0 0 0 0 0 0 0 0 0 0 0 0 0 0 0 0 0 0 0 0 1 0 10 7
0 0 0 0 0 0 0 0 0 0 0 0 0 0 0 0 21 146 108 80 0 0 0 0 0 0 0 0 0 0 0 0 0 0 0 0 0 0 0 0 0 0 0 0 0 0 2 16 13
0 0 0 0 0 0 0 0 0 0 0 0 0 0 0 1 47 127 101 58 0 0 0 0 0 0 0 0 0 0 0 0 0 0 0 0 0 0 0 0 0 0 0 0 0 0 12 12 1

GFSSGP_con_sbcape_036.txt.gz
CAPE
0 0 0 0 0 0 0 0 0 0 0 0 0 0 0 20 0 58 60 64 77 118 389 963 1400 1358 1275 1189 919 679 652 698 805 817 678 387 235 60 41 10 0 0 0 0 0 0 0 0 0
0 0 0 0 0 0 0 0 0 0 0 0 0 0 0 25 0 1 2 156 130 330 640 98 1376 1290 1279 1074 985 825 802 600 593 573 500 292 215 114 12 0 0 0 0 0 0 0 0 0 0
0 0 0 0 0 0 0 0 0 0 0 0 0 0 0 48 2 0 59 210 227 742 779 148 1401 1281 1319 1078 911 823 789 661 654 607 424 256 161 74 34 20 3 0 0 0 2 0 0 1 7
0 0 0 0 0 0 0 0 0 0 0 0 0 0 0 0 38 0 206 163 412 884 668 877 1351 1289 1317 1150 977 775 674 552 492 408 270 173 134 97 62 49 31 4 0 0 0 10 27 47 65
0 0 0 0 0 0 0 0 0 0 0 0 0 0 0 0 140 147 199 164 278 640 505 829 1462 1338 1416 1269 1111 865 631 456 340 251 183 167 140 113 85 79 42 29 29 34 37 58 83 99 155
0 0 0 0 0 0 0 0 0 0 0 0 0 2 0 81 248 150 171 178 147 365 476 348 1641 1533 1382 1274 1153 925 695 565 371 277 252 252 196 186 151 138 126 167 196 129 122 195 251 320 370
0 0 0 0 0 0 0 0 0 0 0 0 24 7 11 62 139 202 157 194 296 345 585 436 924 1073 1487 1398 1207 1029 748 586 421 303 292 303 278 254 214 236 245 272 394 520 588 412 397 430 635
0 0 0 0 0 0 0 0 0 0 0 0 0 5 23 87 363 398 249 321 361 499 558 731 810 545 327 387 1504 1319 1086 810 586 504 483 439 487 438 317 297 356 482 570 700 757 520 514 716 827
0 0 0 0 0 0 0 0 0 0 0 0 0 0 0 166 390 321 400 342 344 453 860 765 590 836 448 61 355 1432 1229 1076 929 737 724 419 90 127 84 118 316 621 748 757 612 590 820 964 940
0 0 0 0 0 0 0 0 0 0 0 0 0 0 0 80 170 65 75 127 200 303 571 866 1068 830 848 204 303 799 388 486 239 135 145 157 125 161 63 141 584 797 842 728 746 950 1127 1043 687
0 0 0 0 0 0 0 0 0 0 0 2 0 0 0 0 0 0 0 0 0 1 27 568 1012 1289 1024 798 434 538 764 426 392 251 597 474 183 241 163 151 249 322 677 628 915 1130 1026 888 807
0 0 0 0 0 0 0 0 0 0 0 0 0 0 0 0 0 0 0 0 0 0 0 289 1021 1572 1646 1070 882 780 734 810 616 487 1118 918 654 815 419 184 269 304 291 494 953 1068 1166 1142 1073
0 0 0 0 0 0 0 0 0 0 0 0 0 0 0 0 0 0 0 0 0 0 12 35 86 1374 1684 1980 1325 1612 1215 980 1049 673 784 847 462 1019 409 426 263 430 352 454 895 993 1267 1205 1245
0 0 0 0 0 0 0 0 0 0 0 0 0 0 0 0 0 0 0 0 0 0 14 33 17 307 1433 1647 2022 2149 2170 1584 1275 958 688 1059 738 1118 451 605 373 359 460 395 602 949 1154 1291 1212
0 0 0 0 0 0 0 0 0 0 0 0 0 0 0 0 0 0 0 0 1 1 17 58 144 162 1129 1858 1874 1834 1547 1534 1181 1193 1372 948 1339 1564 1118 443 475 328 574 563 606 1037 1314 1222 1176
0 0 0 0 0 0 0 0 0 0 0 0 0 0 0 0 0 0 0 0 11 37 27 26 27 0 447 1932 1530 1399 1150 1118 1108 1104 1178 1119 1343 1156 1108 555 474 391 602 501 608 920 1046 1046 1201
0 0 0 0 0 0 0 0 0 0 0 0 0 0 0 0 0 0 0 0 0 7 88 85 105 60 575 1139 994 1541 1865 1381 1087 1060 1215 1245 1327 1277 1085 825 474 1183 461 566 472 528 787 1078 1577
0 0 0 0 0 0 0 0 0 0 0 0 0 0 0 0 0 0 0 0 0 1 42 177 448 631 406 373 758 780 1095 1242 1141 1116 1219 1316 1447 1302 1319 984 871 751 515 595 417 668 1057 1265 1307
0 0 0 0 0 0 0 0 0 0 0 0 0 0 0 0 0 0 0 0 0 0 240 582 978 1544 432 96 577 1024 1093 1316 1227 1213 1369 1391 1377 1368 1389 1183 1084 913 636 584 1036 945 1623 1425 1260
0 0 0 0 0 0 0 0 0 0 0 0 0 0 0 0 0 0 0 0 0 0 314 715 1060 964 717 334 1118 1120 1341 1327 1469 1385 1360 1448 1441 1448 1349 1445 1241 1022 506 642 883 1519 1656 1431 1264
0 0 0 1 5 3 0 0 0 0 0 0 0 0 0 0 0 0 0 0 0 0 142 106 451 443 777 883 1291 1680 1756 1602 1581 1308 1328 1360 1454 1491 1223 1244 1273 1110 691 728 2035 1865 1590 1086 1120
5 0 3 9 31 2 3 0 0 0 0 0 0 0 0 0 0 0 0 0 0 0 0 0 77 176 397 1390 2052 2498 1685 1391 1432 1631 1168 1194 1212 1181 1121 1458 1309 1234 859 1896 1432 1379 1422 1437 966
13 14 14 31 40 32 5 5 0 0 0 0 0 0 0 0 0 0 0 0 0 0 0 0 4 32 437 1307 1843 1870 1961 1722 1810 1625 930 1352 1374 1359 1519 1591 1508 1495 1774 1944 1452 1222 1585 1112 656
42 37 21 64 59 64 11 27 0 0 0 0 0 0 0 0 0 0 0 0 0 0 0 0 172 602 1070 1517 1800 2094 2046 1974 1986 2103 1453 1710 1659 1695 1726 1692 1882 2047 1791 1677 1259 1246 1127 790 530
54 66 71 62 118 57 20 32 0 0 0 0 0 0 0 0 0 0 0 0 0 0 0 421 969 1303 1491 1600 1820 1986 2323 2278 2492 2329 2154 2155 1884 1843 1958 1997 1886 1643 1672 1390 1216 1164 761 694 569
83 71 93 69 92 51 23 42 0 0 0 0 0 0 0 0 0 0 0 0 0 0 375 977 1195 1513 1636 1820 2004 2249 2446 2421 2430 2435 2250 1973 1725 1645 1909 1868 1720 1490 1375 1125 1012 742 612 635 725
149 155 127 92 30 121 12 35 0 0 0 0 0 0 0 0 6 45 9 0 100 839 1367 1744 1733 1786 1929 2132 2241 2404 2450 2519 2338 2168 1915 1549 1644 1667 1656 1609 1416 1258 1074 902 881 535 733 730 890
188 123 93 135 84 105 29 5 0 0 0 0 0 0 0 190 333 240 200 368 1148 1625 2222 2191 2125 2144 2116 2138 2243 2276 2230 2146 2088 1791 1324 1321 1473 1341 1547 1464 1276 1050 733 741 867 668 794 853 833
100 202 196 209 110 23 78 0 2 0 0 0 0 0 0 128 528 724 807 1101 1428 2209 2285 2391 2271 2177 2103 1976 1954 1967 1856 1738 1501 1377 1417 1558 1552 1442 1184 914 615 505 663 902 1002 1059 846 674 526
4 65 17 305 154 24 5 24 19 0 0 0 0 0 0 168 469 554 866 1240 2100 2144 2127 2147 2106 2017 1904 1838 1800 1632 1337 1241 1332 1379 1389 1332 1158 746 384 280 340 543 625 752 817 685 492 117 41